Stations météo

réclame
Mon MeteoGroup
Deelen, Pays-Bas (6275): Température de l'air & dewpoint: 22.05.2018 12:00:00 - 28.05.2018 12:00:00 (CEST)Deelen, Pays-Bas (6275): Température de l'air 5cm: 22.05.2018 12:00:00 - 28.05.2018 12:00:00 (CEST)Deelen, Pays-Bas (6275): Vitesse du vent & gusts: 22.05.2018 12:00:00 - 28.05.2018 12:00:00 (CEST)Deelen, Pays-Bas (6275): Direction du vent: 22.05.2018 12:00:00 - 28.05.2018 12:00:00 (CEST)Deelen, Pays-Bas (6275): reduced air pressure: 22.05.2018 12:00:00 - 28.05.2018 12:00:00 (CEST)Deelen, Pays-Bas (6275): visibility: 22.05.2018 12:00:00 - 28.05.2018 12:00:00 (CEST)Deelen, Pays-Bas (6275): Quantités de précipitations: 22.05.2018 12:00:00 - 28.05.2018 12:00:00 (CEST)
Date & Time tt [°C] td [°C] tt 5cm [°C] ff [km/h] ff [knt] fx [km/h] fx [knt] dd ppp [hPa] vv [km] rr [mm]
28.05.2018 12:00:00 - - - - - - - - - - -
28.05.2018 11:00:00 25,9 15,6 28,3 11 6 18 10 E 1018,6 10 0,0
28.05.2018 10:00:00 24,5 15,6 26,3 5 3 11 6 NE 1018,4 10 0,0
28.05.2018 09:00:00 21,9 15,8 22,9 8 4 14 8 - 1018,4 10 0,0
28.05.2018 08:00:00 19,5 15,4 19,3 8 4 11 6 ENE 1017,7 10 0,0
28.05.2018 07:00:00 17,0 14,8 16,5 4 2 7 4 - 1017,7 10 0,0
28.05.2018 06:00:00 16,3 14,4 14,9 5 3 7 4 NE 1017,6 10 0,0
28.05.2018 05:00:00 15,8 13,4 15,2 5 3 11 6 SE 1017,5 10 0,0
28.05.2018 04:00:00 16,9 13,7 15,8 4 2 7 4 - 1017,3 10 0,0
28.05.2018 03:00:00 16,9 13,9 15,2 4 2 7 4 - 1017,3 10 0,0
28.05.2018 02:00:00 17,6 13,8 16,0 4 2 11 6 - 1017,7 10 0,0
28.05.2018 01:00:00 18,0 13,9 16,9 5 3 7 4 ESE 1017,7 10 0,0
28.05.2018 00:00:00 19,1 14,2 18,1 5 3 18 10 E 1017,6 10 0,0
27.05.2018 23:00:00 19,0 14,6 17,9 5 3 11 6 ESE 1017,6 10 0,0
27.05.2018 22:00:00 19,3 14,7 18,2 8 4 11 6 E 1017,2 10 0,0
27.05.2018 21:00:00 20,0 15,9 19,6 4 2 7 4 - 1017,1 10 0,0
27.05.2018 20:00:00 20,8 15,6 20,7 8 4 14 8 E 1016,7 10 0,0
27.05.2018 19:00:00 22,8 14,9 23,5 9 5 14 8 SSE 1016,2 10 0,0
27.05.2018 18:00:00 20,4 16,6 19,9 5 3 18 10 S 1017,1 10 0,1
27.05.2018 17:00:00 22,3 13,6 22,1 11 6 18 10 S 1017,5 10 0,0
27.05.2018 16:00:00 23,7 13,6 23,7 9 5 25 14 S 1017,2 10 0,0
27.05.2018 15:00:00 25,7 13,8 26,1 13 7 25 14 ESE 1017,5 10 0,0
27.05.2018 14:00:00 27,3 13,7 30,6 15 8 29 16 E 1017,7 10 0,0
27.05.2018 13:00:00 27,0 13,7 30,0 16 9 29 16 - 1018,0 10 0,0
27.05.2018 12:00:00 25,6 14,4 28,4 13 7 22 12 - 1018,6 10 0,0
27.05.2018 11:00:00 24,9 14,5 26,4 13 7 25 14 E 1018,8 10 0,0
27.05.2018 10:00:00 21,5 12,9 23,5 16 9 29 16 ENE 1019,1 10 0,0
27.05.2018 09:00:00 19,3 12,8 20,3 18 10 32 18 ENE 1019,4 10 0,0
27.05.2018 08:00:00 18,3 12,3 18,2 16 9 29 16 ENE 1019,2 10 0,0
27.05.2018 07:00:00 17,6 11,5 17,3 11 6 22 12 ENE 1019,3 10 0,0
27.05.2018 06:00:00 17,2 11,3 16,2 13 7 25 14 ENE 1019,2 10 0,0
27.05.2018 05:00:00 17,2 11,1 16,0 13 7 25 14 ENE 1019,2 10 0,0
27.05.2018 04:00:00 17,9 10,8 16,8 16 9 25 14 ENE 1019,3 10 0,0
27.05.2018 03:00:00 18,6 10,7 17,3 13 7 29 16 ENE 1019,6 10 0,0
27.05.2018 02:00:00 18,7 10,8 17,2 21 11 25 14 NE 1019,9 10 0,0
27.05.2018 01:00:00 19,6 11,0 17,9 16 9 25 14 ENE 1020,3 10 0,0
27.05.2018 00:00:00 19,7 11,4 17,2 18 10 25 14 NE 1020,3 10 0,0
26.05.2018 23:00:00 20,3 12,4 18,1 13 7 18 10 ENE 1020,1 10 0,0
26.05.2018 22:00:00 20,8 12,9 19,2 11 6 18 10 NE 1019,9 10 0,0
26.05.2018 21:00:00 23,6 12,7 22,8 11 6 18 10 NE 1019,5 10 0,0
26.05.2018 20:00:00 26,3 11,4 26,4 13 7 25 14 ENE 1019,4 10 0,0
26.05.2018 19:00:00 27,6 11,0 28,4 16 9 29 16 ENE 1019,3 10 0,0
26.05.2018 18:00:00 27,9 10,9 28,9 18 10 32 18 ENE 1019,3 10 0,0
26.05.2018 17:00:00 28,4 11,6 30,0 15 8 29 16 - 1019,4 10 0,0
26.05.2018 16:00:00 28,9 12,5 30,6 18 10 36 19 ESE 1019,6 10 0,0
26.05.2018 15:00:00 28,9 12,2 30,9 13 7 40 21 - 1019,9 10 0,0
26.05.2018 14:00:00 27,3 13,4 29,4 15 8 32 18 - 1020,2 10 0,0
26.05.2018 13:00:00 27,2 14,7 28,8 16 9 29 16 E 1020,2 10 0,0
26.05.2018 12:00:00 26,2 14,2 28,8 15 8 29 16 - 1020,3 10 0,0
26.05.2018 11:00:00 25,1 15,0 26,8 15 8 25 14 - 1020,3 10 0,0
26.05.2018 10:00:00 23,7 15,2 25,7 11 6 18 10 ESE 1020,2 10 0,0
26.05.2018 09:00:00 21,8 15,0 22,8 5 3 14 8 E 1020,3 10 0,0
26.05.2018 08:00:00 19,5 14,0 19,4 9 5 18 10 E 1020,0 10 0,0
26.05.2018 07:00:00 16,9 13,4 15,9 9 5 18 10 E 1019,7 10 0,0
26.05.2018 06:00:00 15,8 13,1 14,8 11 6 22 12 E 1019,4 10 0,0
26.05.2018 05:00:00 15,9 13,7 15,0 13 7 22 12 ENE 1019,0 10 0,0
26.05.2018 04:00:00 16,2 14,2 15,1 13 7 18 10 ENE 1019,0 10 0,0
26.05.2018 03:00:00 16,6 14,4 14,8 9 5 14 8 ENE 1019,3 10 0,0
26.05.2018 02:00:00 16,2 14,3 14,7 5 3 11 6 ENE 1019,3 10 0,0
26.05.2018 01:00:00 17,2 15,0 15,7 5 3 11 6 E 1019,2 10 0,0
26.05.2018 00:00:00 17,2 15,0 15,6 5 3 11 6 ENE 1019,0 10 0,0
25.05.2018 23:00:00 17,9 15,4 15,6 9 5 11 6 NE 1019,0 10 0,0
25.05.2018 22:00:00 19,0 15,8 17,3 9 5 14 8 NE 1018,8 10 0,0
25.05.2018 21:00:00 21,4 16,2 21,0 13 7 18 10 NE 1018,3 10 0,0
25.05.2018 20:00:00 22,9 15,7 22,9 13 7 29 16 ENE 1018,0 10 0,0
25.05.2018 19:00:00 24,8 14,1 26,3 8 4 22 12 E 1017,6 10 0,0
25.05.2018 18:00:00 24,8 15,3 26,5 9 5 22 12 ESE 1017,9 10 0,0
25.05.2018 17:00:00 24,9 14,7 25,2 15 8 22 12 SE 1018,1 10 0,0
25.05.2018 16:00:00 24,7 15,1 26,0 9 5 22 12 ESE 1018,0 10 0,0
25.05.2018 15:00:00 24,7 16,2 24,6 11 6 18 10 SSE 1018,2 10 0,0
25.05.2018 14:00:00 23,2 15,0 25,4 11 6 22 12 - 1018,1 10 0,0
25.05.2018 13:00:00 23,1 15,8 23,9 13 7 22 12 SE 1018,3 10 0,0
25.05.2018 12:00:00 22,9 16,2 24,1 11 6 18 10 - 1018,4 10 0,0
25.05.2018 11:00:00 22,0 15,8 22,6 11 6 18 10 - 1018,4 10 0,0
25.05.2018 10:00:00 20,7 15,8 22,0 9 5 14 8 ESE 1018,3 10 0,0
25.05.2018 09:00:00 18,7 15,3 18,8 9 5 14 8 ESE 1018,1 10 0,0
25.05.2018 08:00:00 16,7 14,6 16,3 8 4 14 8 E 1017,9 7 0,0
25.05.2018 07:00:00 15,9 14,0 15,2 8 4 11 6 - 1017,6 5 0,0
25.05.2018 06:00:00 15,3 13,7 14,4 8 4 11 6 - 1017,5 4,9 0,0
25.05.2018 05:00:00 15,5 13,7 14,3 5 3 11 6 E 1017,4 6 0,0
25.05.2018 04:00:00 16,4 14,0 15,7 9 5 14 8 E 1017,2 8 0,0
25.05.2018 03:00:00 17,0 14,4 16,5 8 4 14 8 E 1017,5 9 0,0
25.05.2018 02:00:00 17,0 14,7 16,3 9 5 14 8 E 1017,7 9 0,0
25.05.2018 01:00:00 17,2 14,9 16,4 9 5 14 8 E 1017,8 10 0,0
25.05.2018 00:00:00 17,0 15,0 16,3 8 4 18 10 E 1017,7 9 0,1
24.05.2018 23:00:00 17,3 15,1 16,6 5 3 25 14 E 1017,9 9 0,1
24.05.2018 22:00:00 18,5 14,6 18,1 11 6 36 19 - 1017,8 10 0,0
24.05.2018 21:00:00 19,2 14,2 18,9 15 8 29 16 E 1017,6 10 0,0
24.05.2018 20:00:00 19,4 14,0 19,2 16 9 32 18 E 1017,4 10 0,0
24.05.2018 19:00:00 20,7 13,7 20,7 18 10 36 19 - 1017,4 10 0,0
24.05.2018 18:00:00 21,7 13,1 22,2 16 9 40 21 E 1017,4 10 0,0
24.05.2018 17:00:00 22,2 12,7 22,6 21 11 40 21 E 1017,5 10 0,0
24.05.2018 16:00:00 22,5 14,0 23,1 21 11 40 21 ENE 1018,0 10 0,0
24.05.2018 15:00:00 22,0 13,2 22,3 15 8 32 18 E 1018,4 10 0,0
24.05.2018 14:00:00 22,2 12,6 24,1 18 10 32 18 E 1019,0 10 0,0
24.05.2018 13:00:00 21,0 11,9 22,2 16 9 32 18 ENE 1019,6 10 0,0
24.05.2018 12:00:00 19,7 10,9 20,3 13 7 25 14 ENE 1019,9 10 0,0
24.05.2018 11:00:00 19,1 11,1 20,0 18 10 25 14 NE 1020,1 10 0,0
24.05.2018 10:00:00 20,4 11,6 21,0 13 7 22 12 ENE 1020,2 10 0,0
24.05.2018 09:00:00 15,5 9,5 15,4 13 7 25 14 ENE 1020,7 10 0,0
24.05.2018 08:00:00 15,2 9,3 15,2 13 7 22 12 ENE 1020,7 10 0,0
24.05.2018 07:00:00 14,3 8,9 12,9 15 8 25 14 ENE 1020,8 10 0,0
24.05.2018 06:00:00 13,6 8,7 12,0 11 6 29 16 ENE 1020,7 10 0,0
24.05.2018 05:00:00 14,3 8,7 12,7 18 10 25 14 NE 1020,7 10 0,0
24.05.2018 04:00:00 14,7 8,8 12,7 21 11 29 16 NE 1021,1 10 0,0
24.05.2018 03:00:00 14,7 8,5 12,9 18 10 25 14 NE 1021,2 10 0,0
24.05.2018 02:00:00 15,1 8,3 12,6 18 10 25 14 NE 1021,4 10 0,0
24.05.2018 01:00:00 15,6 8,4 11,1 15 8 22 12 NE 1021,5 10 0,0
24.05.2018 00:00:00 15,8 8,9 10,8 15 8 22 12 NNE 1021,5 10 0,0
23.05.2018 23:00:00 17,0 9,2 11,5 15 8 18 10 NE 1021,3 10 0,0
23.05.2018 22:00:00 17,5 10,2 13,0 11 6 18 10 NNE 1021,1 10 0,0
23.05.2018 21:00:00 20,7 10,0 18,9 13 7 25 14 NE 1020,7 10 0,0
23.05.2018 20:00:00 22,5 8,4 22,3 18 10 32 18 ENE 1020,4 10 0,0
23.05.2018 19:00:00 23,4 7,6 23,5 22 12 40 21 E 1019,9 10 0,0
23.05.2018 18:00:00 23,7 10,7 23,7 18 10 36 19 E 1019,8 10 0,0
23.05.2018 17:00:00 24,9 10,9 25,7 21 11 32 18 - 1019,6 10 0,0
23.05.2018 16:00:00 23,6 9,8 24,4 18 10 32 18 ENE 1019,8 10 0,0
23.05.2018 15:00:00 24,4 12,1 27,2 15 8 32 18 - 1020,3 10 0,0
23.05.2018 14:00:00 22,6 14,4 23,5 13 7 25 14 NE 1020,7 10 0,0
23.05.2018 13:00:00 20,1 14,9 21,2 11 6 18 10 NNE 1020,6 10 0,0
23.05.2018 12:00:00 19,1 14,5 20,2 13 7 22 12 NE 1020,5 10 0,0
23.05.2018 11:00:00 18,1 14,1 19,0 11 6 18 10 NE 1020,1 10 0,0
23.05.2018 10:00:00 17,5 13,4 17,6 5 3 22 12 NE 1019,7 10 0,0
23.05.2018 09:00:00 15,4 13,1 15,4 9 5 22 12 NE 1019,3 10 0,0
23.05.2018 08:00:00 15,2 13,0 14,8 15 8 25 14 NE 1018,6 10 0,0
23.05.2018 07:00:00 14,9 13,2 14,4 15 8 25 14 NE 1018,0 10 0,0
23.05.2018 06:00:00 14,8 13,3 14,1 11 6 18 10 NNE 1017,3 10 0,0
23.05.2018 05:00:00 14,2 13,7 13,8 5 3 11 6 NNW 1017,1 10 0,0
23.05.2018 04:00:00 14,8 14,0 13,8 4 2 7 4 NW 1016,7 7 0,0
23.05.2018 03:00:00 14,8 13,9 14,3 8 4 11 6 NNW 1016,5 10 0,0
23.05.2018 02:00:00 15,0 14,1 14,2 2 1 7 4 - 1016,2 9 0,1
23.05.2018 01:00:00 15,3 14,0 14,8 5 3 32 18 NNW 1016,5 10 0,6
23.05.2018 00:00:00 15,8 14,5 15,3 28 15 40 21 ENE 1015,6 10 4,0
22.05.2018 23:00:00 16,5 12,9 15,3 8 4 18 10 N 1015,4 10 0,0
22.05.2018 22:00:00 16,7 13,0 15,7 13 7 36 19 WSW 1014,8 10 0,0
22.05.2018 21:00:00 17,1 12,7 16,2 5 3 14 8 W 1014,6 10 0,0
22.05.2018 20:00:00 17,4 12,4 17,1 9 5 22 12 NNW 1013,8 10 0,0
22.05.2018 19:00:00 18,0 12,3 18,0 16 9 29 16 WNW 1013,3 10 0,0
22.05.2018 18:00:00 20,8 12,3 20,7 9 5 14 8 - 1013,1 10 0,0
22.05.2018 17:00:00 23,0 10,5 23,0 13 7 22 12 ENE 1012,7 10 0,0
22.05.2018 16:00:00 24,4 9,2 25,4 9 5 25 14 E 1012,5 10 0,0
22.05.2018 15:00:00 25,3 8,7 29,1 8 4 18 10 - 1012,5 10 0,0
22.05.2018 14:00:00 24,5 9,8 28,6 11 6 22 12 ENE 1012,6 10 0,0
22.05.2018 13:00:00 23,7 10,3 27,3 9 5 18 10 ENE 1012,8 10 0,0
22.05.2018 12:00:00 22,1 9,5 25,0 13 7 25 14 - 1012,8 10 0,0

tt = Température de l'air
td = dewpoint
tt 5cm = Température de l'air 5cm
ff = Vitesse du vent
fx = gusts
dd = Direction du vent
ppp = reduced air pressure
vv = visibility
rr = Quantités de précipitations

stations d'obs. à proximité